Location: A�t �Alizem
(31.2076°N, 8.7872°W)
Time: 03:38:31
(UTC+00:00)

deb Explorer IX - Pass Details

Date: 29 June 2021
Orbit: 541 x 1234 km, 38.9° (Epoch: 30 July)

Event Time Altitude Azimuth Distance (km) Brightness Sun altitude
Exits shadow 03:48:01 17° 280° (W) 1,961 ? -19.2°
Maximum altitude 03:52:12 48° 212° (SSW) 1,175 ? -18.5°
Drops below altitude 10° 03:58:43 10° 140° (SE) 2,837 ? -17.5°
Sets 04:01:45 0° 135° (SE) 3,892 ? -17.0°
